Location: Most
(50.5330°N, 13.6500°E)
Time: 22:54:21
(UTC+02:00)

ISS - Visible Passes

Search period start: 18 June 2024 00:00
Search period end: 28 June 2024 00:00
Orbit: 411 x 425 km, 51.6° (Epoch: 18 June)

Date Brightness Start Highest point End Pass type
(mag) Time Alt. Az. Time Alt. Az. Time Alt. Az.
25 Jun -1.6 03:49:18 10° S 03:51:29 16° SE 03:53:40 10° E visible
26 Jun -1.3 03:02:43 10° SSE 03:03:37 11° SE 03:04:32 10° ESE visible
27 Jun -2.7 03:48:53 11° SSW 03:51:42 33° SSE 03:54:45 10° E visible
